contact:dominique.lefevre@mio.osupytheas.fr, maurice.libes@osupytheas.fr, didier.mallarino@osupytheas.fr
Project:EMSO http://www.emso-fr.org/EMSO-France
Depth: 2436.0 m
Title:EMSO Ligure Ouest : Data MII capteur AQUADOPP
Date,Latitude,Longitude,X_East,Y_North,Z_Up,Amplitude_X,Amplitude_Y,Amplitude_Z,Batterie,SoundSpeed,Heading,Pitch,Roll,Pressure,TIS,Speed,Direction
, degrees North, degrees East, m.s-1, m.s-1,m.s-1, 1, 1, 1, Volt, m.s-1, degree, degree, degree, dbar, degree_C, m.s-1, degree
2023-05-30T00:04:03,42.805,6.029,0.001,0.007,-0.048,103.0,102.0,102.0,13.3,1505.2,346.5,-0.8,1.8,2471.429,13.29,0.007,8.1
2023-05-30T00:07:03,42.805,6.029,-0.016,-0.007,-0.027,103.0,104.0,101.0,13.4,1505.2,322.4,-0.8,1.8,2471.412,13.29,0.017,246.4
2023-05-30T00:10:03,42.805,6.029,0.008,0.01,-0.001,103.0,103.0,102.0,13.4,1505.2,332.9,-0.8,1.8,2471.413,13.29,0.012,38.7
2023-05-30T00:13:03,42.805,6.029,-0.029,0.001,-0.052,103.0,102.0,102.0,13.4,1505.2,345.6,-0.7,1.8,2471.406,13.29,0.029,272.0
2023-05-30T00:16:03,42.805,6.029,-0.012,-0.027,-0.027,104.0,104.0,102.0,13.4,1505.2,334.2,-0.8,1.8,2471.444,13.29,0.029,204.0
2023-05-30T00:19:03,42.805,6.029,-0.014,0.008,-0.03,103.0,103.0,103.0,13.4,1505.2,333.4,-0.7,1.8,2471.371,13.29,0.016,299.7
2023-05-30T00:22:03,42.805,6.029,-0.009,-0.008,-0.012,102.0,104.0,103.0,13.4,1505.2,329.3,-0.7,1.8,2471.429,13.29,0.012,228.4
2023-05-30T00:25:03,42.805,6.029,-0.016,0.006,-0.016,103.0,105.0,102.0,13.4,1505.2,334.3,-0.8,1.8,2471.38,13.29,0.017,290.6
2023-05-30T00:28:03,42.805,6.029,0.004,-0.01,-0.031,106.0,103.0,102.0,13.3,1505.2,336.1,-0.8,1.8,2471.408,13.29,0.01,158.2
2023-05-30T00:31:03,42.805,6.029,-0.024,-0.011,-0.022,104.0,103.0,102.0,13.3,1505.2,347.0,-0.8,1.8,2471.353,13.29,0.026,245.4
2023-05-30T00:34:03,42.805,6.029,-0.025,0.007,0.001,104.0,103.0,103.0,13.4,1505.2,331.8,-0.8,1.8,2471.386,13.29,0.025,285.6
2023-05-30T00:37:03,42.805,6.029,-0.022,-0.017,-0.001,104.0,103.0,102.0,13.4,1505.2,333.9,-0.7,1.8,2471.387,13.29,0.027,232.3
2023-05-30T00:40:03,42.805,6.029,-0.005,-0.005,-0.021,103.0,102.0,102.0,13.3,1505.2,332.1,-0.8,1.8,2471.382,13.29,0.007,225.0
2023-05-30T00:43:03,42.805,6.029,-0.012,-0.011,-0.027,104.0,103.0,102.0,13.4,1505.2,331.3,-0.8,1.8,2471.403,13.29,0.016,227.5
2023-05-30T00:46:03,42.805,6.029,-0.004,0.01,-0.025,102.0,103.0,102.0,13.3,1505.2,345.9,-0.7,1.9,2471.369,13.29,0.01,338.2
2023-05-30T00:49:03,42.805,6.029,-0.011,-0.015,-0.037,103.0,104.0,102.0,13.4,1505.2,337.4,-0.8,1.8,2471.386,13.29,0.018,216.3
2023-05-30T00:52:03,42.805,6.029,0.007,-0.016,-0.017,104.0,104.0,102.0,13.3,1505.2,328.0,-0.8,1.8,2471.392,13.29,0.017,156.4
2023-05-30T00:55:03,42.805,6.029,-0.015,-0.003,-0.035,103.0,103.0,102.0,13.4,1505.2,331.2,-0.7,1.8,2471.409,13.29,0.015,258.7
2023-05-30T00:58:03,42.805,6.029,-0.014,0.004,-0.032,103.0,103.0,101.0,13.4,1505.2,334.5,-0.8,1.8,2471.396,13.29,0.014,285.9
2023-05-30T01:04:03,42.805,6.029,-0.015,-0.017,-0.046,104.0,104.0,103.0,13.4,1505.2,328.4,-0.8,1.8,2471.453,13.29,0.022,221.4
2023-05-30T01:07:03,42.805,6.029,0.004,-0.018,-0.039,103.0,103.0,104.0,13.4,1505.2,326.9,-0.8,1.8,2471.447,13.29,0.018,167.5
2023-05-30T01:10:03,42.805,6.029,-0.008,-0.009,-0.06,105.0,103.0,102.0,13.3,1505.2,343.9,-0.8,1.8,2471.4,13.29,0.012,221.6
2023-05-30T01:13:03,42.805,6.029,-0.002,-0.012,-0.033,103.0,103.0,102.0,13.4,1505.2,336.1,-0.7,1.8,2471.419,13.29,0.012,189.5
2023-05-30T01:16:03,42.805,6.029,-0.011,-0.015,-0.029,104.0,103.0,103.0,13.4,1505.2,337.1,-0.8,1.8,2471.441,13.29,0.018,216.3
2023-05-30T01:19:03,42.805,6.029,-0.033,-0.001,-0.045,104.0,103.0,101.0,13.4,1505.2,335.0,-0.8,1.8,2471.427,13.29,0.033,268.3
2023-05-30T01:22:03,42.805,6.029,0.003,-0.006,-0.034,103.0,102.0,103.0,13.4,1505.2,322.4,-0.7,1.8,2471.432,13.29,0.006,153.4
2023-05-30T01:25:03,42.805,6.029,0.0,-0.011,-0.002,104.0,103.0,102.0,13.3,1505.2,334.4,-0.8,1.8,2471.434,13.29,0.011,180.0
2023-05-30T01:28:03,42.805,6.029,-0.006,-0.011,-0.036,104.0,103.0,102.0,13.4,1505.2,336.1,-0.7,1.8,2471.486,13.29,0.012,208.6
2023-05-30T01:31:03,42.805,6.029,-0.016,-0.014,-0.016,103.0,103.0,102.0,13.4,1505.2,347.0,-0.7,1.8,2471.399,13.29,0.021,228.8
2023-05-30T01:34:03,42.805,6.029,0.013,-0.02,-0.028,104.0,103.0,102.0,13.3,1505.2,321.4,-0.8,1.8,2471.404,13.29,0.023,147.0
2023-05-30T01:37:03,42.805,6.029,0.002,-0.003,-0.053,104.0,103.0,101.0,13.3,1505.2,340.5,-0.8,1.8,2471.425,13.29,0.003,146.3
2023-05-30T01:40:03,42.805,6.029,-0.018,-0.02,-0.031,103.0,102.0,102.0,13.4,1505.2,329.0,-0.8,1.8,2471.397,13.29,0.026,222.0
2023-05-30T01:43:03,42.805,6.029,-0.002,-0.006,-0.024,103.0,103.0,102.0,13.4,1505.2,349.7,-0.8,1.8,2471.403,13.29,0.006,198.4
2023-05-30T01:46:03,42.805,6.029,-0.003,-0.023,-0.022,103.0,103.0,102.0,13.4,1505.2,334.2,-0.7,1.8,2471.473,13.29,0.023,187.4
2023-05-30T01:49:03,42.805,6.029,-0.015,-0.003,-0.022,103.0,102.0,102.0,13.4,1505.2,339.8,-0.7,1.8,2471.38,13.29,0.015,258.7
2023-05-30T01:52:03,42.805,6.029,-0.006,-0.008,-0.032,104.0,101.0,101.0,13.3,1505.2,345.9,-0.8,1.8,2471.403,13.29,0.01,216.9
2023-05-30T01:55:03,42.805,6.029,0.007,-0.004,-0.036,104.0,102.0,102.0,13.3,1505.2,320.1,-0.8,1.8,2471.421,13.29,0.008,119.7
2023-05-30T01:58:03,42.805,6.029,0.027,-0.023,-0.025,103.0,102.0,102.0,13.3,1505.2,340.8,-0.7,1.8,2471.372,13.29,0.035,130.4
2023-05-30T02:04:03,42.805,6.029,-0.003,-0.016,-0.034,103.0,102.0,102.0,13.3,1505.2,329.0,-0.8,1.8,2471.427,13.29,0.016,190.6
2023-05-30T02:07:03,42.805,6.029,-0.017,-0.015,-0.037,104.0,103.0,101.0,13.4,1505.2,334.4,-0.8,1.8,2471.453,13.29,0.022,228.6
2023-05-30T02:10:03,42.805,6.029,-0.001,-0.023,-0.033,103.0,103.0,102.0,13.3,1505.2,338.4,-0.8,1.8,2471.468,13.29,0.023,182.5
2023-05-30T02:13:03,42.805,6.029,-0.028,-0.014,-0.059,105.0,103.0,101.0,13.4,1505.2,327.2,-0.8,1.8,2471.442,13.29,0.031,243.4
2023-05-30T02:16:03,42.805,6.029,0.004,-0.023,-0.063,104.0,102.0,103.0,13.3,1505.2,326.5,-0.7,1.8,2471.438,13.29,0.023,170.1
2023-05-30T02:19:03,42.805,6.029,-0.001,-0.017,-0.026,104.0,102.0,102.0,13.4,1505.2,341.5,-0.8,1.8,2471.388,13.29,0.017,183.4
2023-05-30T02:22:03,42.805,6.029,0.01,-0.013,-0.04,105.0,104.0,101.0,13.4,1505.2,329.8,-0.8,1.8,2471.46,13.29,0.016,142.4
2023-05-30T02:25:03,42.805,6.029,-0.004,-0.01,-0.027,104.0,103.0,102.0,13.3,1505.2,344.2,-0.7,1.8,2471.445,13.29,0.01,201.8
2023-05-30T02:28:03,42.805,6.029,-0.013,-0.005,-0.027,104.0,102.0,102.0,13.3,1505.2,318.9,-0.8,1.8,2471.407,13.29,0.013,249.0
2023-05-30T02:31:03,42.805,6.029,-0.018,-0.014,-0.053,103.0,103.0,102.0,13.4,1505.2,336.0,-0.7,1.8,2471.445,13.29,0.022,232.1
2023-05-30T02:34:03,42.805,6.029,-0.02,-0.03,-0.047,104.0,103.0,102.0,13.4,1505.2,327.9,-0.8,1.8,2471.432,13.29,0.036,213.7
2023-05-30T02:37:03,42.805,6.029,-0.011,-0.033,-0.034,103.0,103.0,102.0,13.4,1505.2,321.2,-0.8,1.8,2471.436,13.29,0.034,198.4
2023-05-30T02:40:03,42.805,6.029,-0.011,0.003,-0.047,104.0,102.0,102.0,13.4,1505.2,326.8,-0.8,1.8,2471.425,13.29,0.011,285.3
2023-05-30T02:43:03,42.805,6.029,-0.002,-0.01,-0.03,104.0,103.0,102.0,13.3,1505.2,330.1,-0.8,1.8,2471.419,13.29,0.01,191.3
2023-05-30T02:46:03,42.805,6.029,-0.008,-0.018,-0.033,103.0,103.0,102.0,13.4,1505.2,334.6,-0.8,1.8,2471.439,13.29,0.019,204.0
2023-05-30T02:49:03,42.805,6.029,0.006,-0.012,-0.037,104.0,102.0,101.0,13.3,1505.2,336.2,-0.8,1.8,2471.433,13.29,0.013,153.4
2023-05-30T02:52:03,42.805,6.029,-0.01,-0.015,-0.008,104.0,102.0,102.0,13.4,1505.2,332.9,-0.8,1.8,2471.438,13.29,0.018,213.7
2023-05-30T02:55:03,42.805,6.029,0.028,-0.01,-0.009,103.0,103.0,102.0,13.4,1505.2,338.3,-0.8,1.8,2471.44,13.29,0.029,109.6
2023-05-30T02:58:03,42.805,6.029,-0.003,-0.008,-0.028,104.0,104.0,102.0,13.4,1505.2,335.5,-0.8,1.8,2471.446,13.29,0.008,200.6
2023-05-30T03:04:03,42.805,6.029,-0.015,-0.022,-0.025,104.0,104.0,102.0,13.4,1505.2,335.8,-0.7,1.8,2471.451,13.28,0.026,214.3
2023-05-30T03:07:03,42.805,6.029,-0.016,-0.014,-0.063,104.0,104.0,101.0,13.4,1505.2,322.4,-0.8,1.8,2471.484,13.28,0.021,228.8
2023-05-30T03:10:03,42.805,6.029,0.001,-0.01,0.006,103.0,103.0,101.0,13.4,1505.2,334.3,-0.8,1.8,2471.42,13.29,0.01,174.3
2023-05-30T03:13:03,42.805,6.029,-0.013,-0.007,-0.024,103.0,102.0,102.0,13.4,1505.2,347.0,-0.8,1.8,2471.487,13.29,0.014,241.7
2023-05-30T03:16:03,42.805,6.029,-0.008,-0.003,-0.069,104.0,104.0,102.0,13.4,1505.2,318.9,-0.8,1.8,2471.477,13.29,0.008,249.4
2023-05-30T03:19:03,42.805,6.029,-0.003,-0.03,-0.03,104.0,103.0,102.0,13.4,1505.2,340.2,-0.7,1.8,2471.48,13.29,0.03,185.7
2023-05-30T03:22:03,42.805,6.029,-0.019,-0.005,-0.018,104.0,102.0,102.0,13.4,1505.2,341.2,-0.8,1.8,2471.47,13.29,0.019,255.3
2023-05-30T03:25:03,42.805,6.029,0.001,-0.027,-0.02,103.0,103.0,102.0,13.3,1505.2,346.4,-0.8,1.8,2471.455,13.29,0.027,177.9
2023-05-30T03:28:03,42.805,6.029,-0.002,-0.02,-0.016,104.0,103.0,102.0,13.4,1505.2,331.2,-0.8,1.8,2471.445,13.29,0.02,185.7
2023-05-30T03:31:03,42.805,6.029,0.001,-0.016,-0.034,103.0,102.0,102.0,13.4,1505.2,347.0,-0.8,1.8,2471.475,13.29,0.016,176.4
2023-05-30T03:34:03,42.805,6.029,-0.018,-0.02,-0.071,104.0,103.0,102.0,13.4,1505.2,325.0,-0.8,1.8,2471.443,13.29,0.026,222.0
2023-05-30T03:37:03,42.805,6.029,0.006,-0.006,-0.055,103.0,103.0,102.0,13.3,1505.2,341.2,-0.8,1.8,2471.455,13.29,0.008,135.0
2023-05-30T03:40:03,42.805,6.029,-0.029,-0.007,-0.027,102.0,103.0,103.0,13.3,1505.2,334.9,-0.8,1.9,2471.438,13.29,0.029,256.4
2023-05-30T03:43:03,42.805,6.029,-0.008,0.001,-0.024,103.0,102.0,102.0,13.4,1505.2,343.6,-0.8,1.8,2471.418,13.29,0.008,277.1
2023-05-30T03:46:03,42.805,6.029,-0.024,-0.028,-0.055,104.0,103.0,101.0,13.4,1505.2,326.3,-0.8,1.8,2471.415,13.29,0.036,220.6
2023-05-30T03:49:03,42.805,6.029,-0.023,-0.022,-0.068,104.0,104.0,101.0,13.4,1505.2,326.3,-0.8,1.8,2471.461,13.29,0.031,226.3
2023-05-30T03:52:03,42.805,6.029,0.003,-0.01,-0.007,104.0,103.0,102.0,13.4,1505.2,341.9,-0.7,1.8,2471.414,13.29,0.01,163.3
2023-05-30T03:55:03,42.805,6.029,0.008,-0.027,-0.033,104.0,102.0,103.0,13.3,1505.2,326.6,-0.7,1.8,2471.431,13.29,0.028,163.5
2023-05-30T03:58:03,42.805,6.029,-0.025,-0.005,-0.036,103.0,102.0,102.0,13.4,1505.2,347.5,-0.8,1.9,2471.444,13.29,0.025,258.7
2023-05-30T04:04:03,42.805,6.029,-0.017,-0.009,-0.034,104.0,103.0,102.0,13.4,1505.2,334.8,-0.8,1.8,2471.506,13.28,0.019,242.1
2023-05-30T04:07:03,42.805,6.029,-0.022,-0.006,-0.024,103.0,103.0,102.0,13.4,1505.2,345.6,-0.8,1.8,2471.503,13.29,0.022,254.7
2023-05-30T04:10:03,42.805,6.029,-0.008,-0.02,-0.032,103.0,103.0,102.0,13.4,1505.2,320.9,-0.8,1.8,2471.438,13.29,0.021,201.8
2023-05-30T04:13:03,42.805,6.029,-0.011,-0.038,-0.05,104.0,103.0,103.0,13.3,1505.2,341.9,-0.8,1.8,2471.494,13.29,0.039,196.1
2023-05-30T04:16:03,42.805,6.029,0.007,-0.007,-0.011,104.0,104.0,101.0,13.4,1505.2,339.7,-0.8,1.9,2471.487,13.29,0.009,135.0
2023-05-30T04:19:03,42.805,6.029,-0.013,-0.01,-0.031,102.0,103.0,103.0,13.4,1505.2,334.4,-0.7,1.8,2471.475,13.29,0.016,232.4
2023-05-30T04:22:03,42.805,6.029,-0.028,-0.012,-0.045,102.0,103.0,103.0,13.4,1505.2,332.5,-0.8,1.8,2471.454,13.29,0.03,246.8
2023-05-30T04:25:03,42.805,6.029,-0.005,0.002,-0.02,103.0,102.0,103.0,13.3,1505.2,343.0,-0.8,1.8,2471.461,13.29,0.005,291.8
2023-05-30T04:28:03,42.805,6.029,-0.003,-0.002,-0.006,104.0,103.0,102.0,13.3,1505.2,347.0,-0.7,1.8,2471.484,13.29,0.003,236.3
2023-05-30T04:31:03,42.805,6.029,-0.04,-0.017,-0.035,103.0,102.0,103.0,13.3,1505.2,330.3,-0.8,1.8,2471.412,13.29,0.043,247.0
2023-05-30T04:34:03,42.805,6.029,-0.006,-0.023,-0.024,103.0,103.0,102.0,13.4,1505.2,324.1,-0.7,1.8,2471.461,13.29,0.023,194.6
2023-05-30T04:37:03,42.805,6.029,-0.005,-0.013,-0.032,104.0,103.0,102.0,13.4,1505.2,346.8,-0.8,1.8,2471.432,13.29,0.013,201.0
2023-05-30T04:40:03,42.805,6.029,-0.01,-0.006,-0.003,104.0,103.0,102.0,13.4,1505.2,321.3,-0.8,1.8,2471.442,13.29,0.011,239.0
2023-05-30T04:43:03,42.805,6.029,-0.011,-0.019,-0.061,104.0,102.0,104.0,13.4,1505.2,330.0,-0.8,1.8,2471.438,13.29,0.021,210.1
2023-05-30T04:46:03,42.805,6.029,-0.023,-0.02,-0.03,103.0,103.0,102.0,13.4,1505.2,341.1,-0.8,1.8,2471.414,13.29,0.03,229.0
2023-05-30T04:49:03,42.805,6.029,-0.008,-0.004,-0.014,104.0,103.0,102.0,13.4,1505.2,336.0,-0.8,1.9,2471.475,13.29,0.008,243.4
2023-05-30T04:52:03,42.805,6.029,-0.022,-0.004,-0.046,103.0,103.0,101.0,13.4,1505.2,329.9,-0.8,1.8,2471.444,13.29,0.022,259.7
2023-05-30T04:55:03,42.805,6.029,-0.015,-0.018,-0.031,103.0,102.0,102.0,13.4,1505.2,331.4,-0.8,1.8,2471.443,13.29,0.023,219.8
2023-05-30T04:58:03,42.805,6.029,-0.025,-0.02,-0.016,103.0,103.0,102.0,13.4,1505.2,337.8,-0.8,1.8,2471.444,13.29,0.032,231.3
2023-05-30T05:04:03,42.805,6.029,-0.021,-0.004,-0.021,104.0,102.0,102.0,13.4,1505.2,333.9,-0.8,1.8,2471.491,13.28,0.021,259.2
2023-05-30T05:07:03,42.805,6.029,-0.014,-0.015,0.0,103.0,102.0,102.0,13.4,1505.2,345.9,-0.8,1.8,2471.481,13.29,0.02,223.0
2023-05-30T05:10:03,42.805,6.029,0.0,-0.012,-0.046,103.0,103.0,102.0,13.3,1505.2,323.8,-0.8,1.8,2471.465,13.29,0.012,180.0
2023-05-30T05:13:03,42.805,6.029,-0.023,-0.016,-0.043,103.0,102.0,103.0,13.4,1505.2,337.0,-0.8,1.8,2471.494,13.29,0.028,235.2
2023-05-30T05:16:03,42.805,6.029,-0.01,-0.033,-0.022,103.0,103.0,102.0,13.4,1505.2,336.5,-0.8,1.8,2471.466,13.29,0.034,196.9
2023-05-30T05:19:03,42.805,6.029,-0.006,-0.017,-0.038,104.0,103.0,102.0,13.4,1505.2,347.3,-0.8,1.8,2471.443,13.29,0.018,199.4
2023-05-30T05:22:03,42.805,6.029,-0.03,-0.018,-0.04,104.0,103.0,103.0,13.3,1505.2,324.3,-0.7,1.8,2471.423,13.29,0.034,239.0
2023-05-30T05:25:03,42.805,6.029,-0.022,-0.027,-0.078,103.0,103.0,102.0,13.4,1505.2,334.7,-0.8,1.8,2471.445,13.29,0.034,219.2
2023-05-30T05:28:03,42.805,6.029,-0.008,-0.013,-0.042,105.0,102.0,102.0,13.4,1505.2,337.9,-0.8,1.8,2471.45,13.29,0.015,211.6
2023-05-30T05:31:03,42.805,6.029,-0.012,-0.016,-0.038,102.0,103.0,102.0,13.4,1505.2,321.8,-0.7,1.8,2471.416,13.29,0.02,216.9
2023-05-30T05:34:03,42.805,6.029,-0.022,-0.016,-0.059,103.0,103.0,101.0,13.3,1505.2,339.8,-0.7,1.8,2471.401,13.29,0.027,234.0
2023-05-30T05:37:03,42.805,6.029,-0.003,-0.025,-0.015,103.0,102.0,101.0,13.4,1505.2,330.8,-0.7,1.8,2471.411,13.29,0.025,186.8
2023-05-30T05:40:03,42.805,6.029,-0.02,-0.018,-0.027,103.0,103.0,102.0,13.4,1505.2,347.2,-0.8,1.8,2471.413,13.29,0.026,228.0
2023-05-30T05:43:03,42.805,6.029,-0.007,-0.032,-0.038,104.0,103.0,101.0,13.3,1505.2,337.9,-0.8,1.8,2471.415,13.29,0.032,192.3
2023-05-30T05:46:03,42.805,6.029,-0.026,-0.022,-0.046,104.0,102.0,102.0,13.4,1505.2,347.5,-0.8,1.8,2471.409,13.29,0.034,229.8
2023-05-30T05:49:03,42.805,6.029,-0.01,-0.012,-0.048,103.0,103.0,102.0,13.4,1505.2,328.2,-0.8,1.8,2471.449,13.29,0.015,219.8
2023-05-30T05:52:03,42.805,6.029,-0.016,-0.005,-0.029,102.0,103.0,103.0,13.4,1505.2,326.8,-0.7,1.8,2471.437,13.29,0.016,252.6
2023-05-30T05:55:03,42.805,6.029,-0.005,-0.01,-0.05,103.0,103.0,103.0,13.4,1505.2,343.1,-0.8,1.8,2471.438,13.29,0.011,206.6
2023-05-30T05:58:03,42.805,6.029,-0.012,-0.018,-0.047,103.0,102.0,102.0,13.3,1505.2,337.9,-0.7,1.8,2471.413,13.29,0.021,213.7
2023-05-30T06:04:03,42.805,6.029,-0.004,0.0,-0.001,103.0,102.0,102.0,13.4,1505.2,318.4,-0.8,1.8,2471.469,13.28,0.004,270.0
2023-05-30T06:07:03,42.805,6.029,-0.018,-0.015,-0.015,103.0,103.0,102.0,13.3,1505.2,338.4,-0.8,1.8,2471.447,13.28,0.023,230.2
2023-05-30T06:10:03,42.805,6.029,-0.023,-0.031,-0.04,103.0,102.0,101.0,13.3,1505.2,322.5,-0.8,1.8,2471.461,13.29,0.038,216.6
2023-05-30T06:13:03,42.805,6.029,-0.022,-0.007,-0.022,104.0,102.0,101.0,13.4,1505.2,338.4,-0.8,1.8,2471.459,13.29,0.023,252.4
2023-05-30T06:16:03,42.805,6.029,-0.041,-0.002,-0.039,103.0,103.0,101.0,13.4,1505.2,335.4,-0.7,1.8,2471.437,13.29,0.041,267.2
2023-05-30T06:19:03,42.805,6.029,-0.023,-0.007,-0.084,101.0,102.0,102.0,13.4,1505.2,337.5,-0.7,1.8,2471.405,13.29,0.024,253.1
2023-05-30T06:22:03,42.805,6.029,-0.012,-0.025,-0.011,102.0,102.0,102.0,13.4,1505.2,319.4,-0.8,1.8,2471.403,13.29,0.027,205.6
2023-05-30T06:25:03,42.805,6.029,-0.023,-0.006,-0.046,103.0,103.0,101.0,13.3,1505.2,326.3,-0.8,1.8,2471.427,13.29,0.023,255.4
2023-05-30T06:28:03,42.805,6.029,-0.021,-0.011,-0.046,103.0,103.0,102.0,13.4,1505.2,324.0,-0.8,1.8,2471.382,13.29,0.023,242.4
2023-05-30T06:31:03,42.805,6.029,-0.025,0.009,-0.062,104.0,103.0,101.0,13.3,1505.2,333.9,-0.8,1.8,2471.427,13.29,0.026,289.8
2023-05-30T06:34:03,42.805,6.029,-0.022,0.016,-0.01,105.0,103.0,101.0,13.4,1505.2,329.0,-0.8,1.9,2471.408,13.29,0.027,306.0
2023-05-30T06:37:03,42.805,6.029,-0.037,0.013,-0.02,104.0,102.0,102.0,13.4,1505.2,344.2,-0.7,1.8,2471.375,13.29,0.039,289.4
2023-05-30T06:40:03,42.805,6.029,-0.023,-0.011,-0.025,102.0,102.0,101.0,13.4,1505.2,322.5,-0.8,1.8,2471.383,13.29,0.025,244.4
2023-05-30T06:43:03,42.805,6.029,-0.009,-0.021,-0.068,102.0,103.0,102.0,13.4,1505.2,327.8,-0.8,1.8,2471.37,13.29,0.022,203.2
2023-05-30T06:46:03,42.805,6.029,-0.009,-0.014,-0.029,102.0,101.0,101.0,13.3,1505.2,318.2,-0.7,1.8,2471.407,13.29,0.016,212.7
2023-05-30T06:49:03,42.805,6.029,-0.014,0.009,-0.048,101.0,102.0,101.0,13.3,1505.2,328.1,-0.7,1.8,2471.368,13.29,0.016,302.7
2023-05-30T06:52:03,42.805,6.029,0.007,0.007,-0.019,102.0,101.0,102.0,13.4,1505.2,331.8,-0.8,1.8,2471.385,13.29,0.009,45.0
2023-05-30T06:55:03,42.805,6.029,-0.009,-0.013,-0.051,103.0,102.0,101.0,13.4,1505.2,318.8,-0.7,1.8,2471.377,13.29,0.015,214.7
2023-05-30T06:58:03,42.805,6.029,-0.01,0.003,-0.038,103.0,101.0,101.0,13.4,1505.2,332.5,-0.8,1.8,2471.375,13.29,0.01,286.7
2023-05-30T07:04:03,42.805,6.029,-0.041,-0.003,-0.045,103.0,101.0,102.0,13.4,1505.2,330.9,-0.8,1.8,2471.413,13.28,0.041,265.8
2023-05-30T07:07:03,42.805,6.029,-0.018,0.007,-0.033,103.0,101.0,102.0,13.4,1505.2,337.3,-0.8,1.8,2471.413,13.28,0.019,291.2
2023-05-30T07:10:03,42.805,6.029,-0.025,0.002,-0.019,102.0,101.0,101.0,13.4,1505.2,339.3,-0.7,1.8,2471.426,13.29,0.025,274.6
2023-05-30T07:13:03,42.805,6.029,-0.042,-0.005,-0.069,102.0,102.0,102.0,13.3,1505.2,319.8,-0.8,1.8,2471.415,13.29,0.042,263.2
2023-05-30T07:16:03,42.805,6.029,-0.007,-0.005,-0.019,102.0,102.0,101.0,13.4,1505.2,339.5,-0.8,1.8,2471.408,13.29,0.008,234.5
2023-05-30T07:19:03,42.805,6.029,-0.03,0.009,-0.017,103.0,101.0,101.0,13.4,1505.2,338.7,-0.7,1.8,2471.396,13.29,0.031,286.7
2023-05-30T07:22:03,42.805,6.029,-0.009,-0.007,-0.021,102.0,102.0,102.0,13.4,1505.2,336.0,-0.8,1.8,2471.397,13.29,0.011,232.1
2023-05-30T07:25:03,42.805,6.029,-0.008,-0.001,-0.041,102.0,102.0,102.0,13.4,1505.2,344.2,-0.8,1.8,2471.396,13.29,0.008,262.9
2023-05-30T07:28:03,42.805,6.029,-0.022,0.0,-0.019,103.0,102.0,101.0,13.3,1505.2,316.9,-0.8,1.8,2471.362,13.29,0.022,270.0
2023-05-30T07:31:03,42.805,6.029,-0.002,0.003,-0.022,103.0,103.0,103.0,13.3,1505.2,337.9,-0.8,1.8,2471.372,13.29,0.003,326.3
2023-05-30T07:34:03,42.805,6.029,-0.03,-0.012,-0.063,102.0,102.0,102.0,13.4,1505.2,326.8,-0.8,1.8,2471.379,13.29,0.032,248.2
2023-05-30T07:37:03,42.805,6.029,-0.035,0.011,-0.052,102.0,103.0,101.0,13.4,1505.2,325.5,-0.7,1.8,2471.369,13.29,0.036,287.4
2023-05-30T07:40:03,42.805,6.029,-0.025,0.003,-0.012,103.0,101.0,102.0,13.4,1505.2,328.7,-0.8,1.8,2471.38,13.29,0.025,276.8
2023-05-30T07:43:03,42.805,6.029,-0.026,-0.008,-0.035,102.0,102.0,102.0,13.4,1505.2,337.4,-0.8,1.8,2471.397,13.29,0.027,252.9
2023-05-30T07:46:03,42.805,6.029,-0.031,-0.004,-0.045,103.0,103.0,101.0,13.4,1505.2,326.8,-0.7,1.8,2471.388,13.29,0.031,262.7
2023-05-30T07:49:03,42.805,6.029,-0.022,-0.011,-0.013,103.0,101.0,102.0,13.4,1505.2,335.6,-0.8,1.8,2471.346,13.29,0.024,243.4
2023-05-30T07:52:03,42.805,6.029,-0.005,-0.021,-0.016,103.0,103.0,101.0,13.4,1505.2,317.7,-0.8,1.8,2471.319,13.29,0.021,193.4
2023-05-30T07:55:03,42.805,6.029,-0.024,-0.008,-0.031,103.0,101.0,101.0,13.4,1505.2,326.5,-0.8,1.8,2471.363,13.29,0.025,251.6
2023-05-30T07:58:03,42.805,6.029,-0.019,0.019,-0.036,104.0,103.0,102.0,13.4,1505.2,344.6,-0.8,1.8,2471.329,13.29,0.026,315.0
2023-05-30T08:04:03,42.805,6.029,-0.018,0.002,-0.034,103.0,102.0,101.0,13.4,1505.2,334.6,-0.8,1.8,2471.408,13.28,0.018,276.3
2023-05-30T08:07:03,42.805,6.029,-0.033,-0.002,-0.026,102.0,102.0,101.0,13.4,1505.2,331.1,-0.8,1.9,2471.394,13.28,0.033,266.5
2023-05-30T08:10:03,42.805,6.029,-0.015,0.038,-0.029,102.0,102.0,101.0,13.3,1505.2,349.7,-0.8,1.8,2471.366,13.29,0.04,338.5
2023-05-30T08:13:03,42.805,6.029,-0.015,0.009,-0.044,105.0,101.0,101.0,13.3,1505.2,330.2,-0.8,1.8,2471.338,13.29,0.017,301.0
2023-05-30T08:16:03,42.805,6.029,-0.015,-0.027,-0.067,104.0,102.0,100.0,13.3,1505.2,340.0,-0.8,1.8,2471.363,13.29,0.03,209.1
2023-05-30T08:19:03,42.805,6.029,-0.022,0.011,-0.019,102.0,103.0,102.0,13.3,1505.2,338.6,-0.7,1.8,2471.384,13.29,0.024,296.6
2023-05-30T08:22:03,42.805,6.029,-0.024,0.013,-0.005,103.0,101.0,102.0,13.4,1505.2,339.5,-0.8,1.8,2471.364,13.29,0.027,298.4
2023-05-30T08:25:03,42.805,6.029,0.0,0.015,-0.043,103.0,102.0,101.0,13.4,1505.2,340.1,-0.8,1.8,2471.358,13.29,0.015,0.0
2023-05-30T08:28:03,42.805,6.029,-0.007,-0.001,-0.037,103.0,102.0,101.0,13.3,1505.2,336.4,-0.8,1.8,2471.341,13.29,0.007,261.9
2023-05-30T08:31:03,42.805,6.029,-0.013,0.0,-0.03,102.0,104.0,101.0,13.4,1505.2,321.0,-0.8,1.8,2471.34,13.29,0.013,270.0
2023-05-30T08:34:03,42.805,6.029,-0.03,0.0,-0.032,102.0,102.0,102.0,13.4,1505.2,332.3,-0.8,1.8,2471.311,13.29,0.03,270.0
2023-05-30T08:37:03,42.805,6.029,-0.007,0.008,-0.035,102.0,103.0,101.0,13.3,1505.2,344.8,-0.8,1.8,2471.342,13.29,0.01,318.8
2023-05-30T08:40:03,42.805,6.029,-0.031,-0.011,-0.025,103.0,102.0,102.0,13.4,1505.2,329.6,-0.7,1.8,2471.305,13.29,0.032,250.5
2023-05-30T08:43:03,42.805,6.029,-0.012,0.002,-0.03,102.0,102.0,102.0,13.4,1505.2,329.8,-0.8,1.8,2471.293,13.29,0.012,279.5
2023-05-30T08:46:03,42.805,6.029,-0.01,0.006,-0.016,103.0,102.0,102.0,13.4,1505.2,324.0,-0.8,1.8,2471.322,13.29,0.011,301.0
2023-05-30T08:49:03,42.805,6.029,-0.004,-0.012,-0.024,101.0,104.0,102.0,13.4,1505.2,331.6,-0.8,1.8,2471.302,13.29,0.012,198.4
2023-05-30T08:52:03,42.805,6.029,-0.039,0.03,-0.06,101.0,102.0,102.0,13.3,1505.2,346.2,-0.8,1.8,2471.333,13.29,0.049,307.6
2023-05-30T08:55:03,42.805,6.029,-0.02,0.0,-0.016,103.0,102.0,101.0,13.3,1505.2,338.2,-0.8,1.8,2471.318,13.29,0.02,270.0
2023-05-30T08:58:03,42.805,6.029,-0.014,0.03,-0.005,102.0,101.0,102.0,13.4,1505.2,345.0,-0.8,1.8,2471.339,13.29,0.033,335.0
2023-05-30T09:04:03,42.805,6.029,-0.035,0.0,-0.045,102.0,102.0,101.0,13.4,1505.2,345.6,-0.7,1.8,2471.346,13.28,0.035,270.0
2023-05-30T09:07:03,42.805,6.029,-0.022,0.03,-0.023,103.0,100.0,102.0,13.4,1505.2,332.4,-0.8,1.8,2471.336,13.29,0.037,323.7
2023-05-30T09:10:03,42.805,6.029,-0.032,0.016,-0.045,103.0,102.0,101.0,13.4,1505.2,338.6,-0.8,1.8,2471.319,13.29,0.035,296.6
2023-05-30T09:13:03,42.805,6.029,-0.024,0.018,-0.011,101.0,102.0,103.0,13.3,1505.2,321.9,-0.8,1.8,2471.399,13.29,0.03,306.9
2023-05-30T09:16:03,42.805,6.029,-0.026,0.009,-0.036,101.0,102.0,102.0,13.3,1505.2,321.7,-0.8,1.8,2471.348,13.29,0.027,289.1
2023-05-30T09:19:03,42.805,6.029,-0.031,0.012,-0.026,102.0,102.0,101.0,13.4,1505.2,331.6,-0.8,1.8,2471.375,13.29,0.033,291.2
2023-05-30T09:22:03,42.805,6.029,-0.024,0.033,-0.018,102.0,101.0,102.0,13.4,1505.2,345.4,-0.8,1.9,2471.336,13.29,0.04,324.0
2023-05-30T09:25:03,42.805,6.029,-0.033,0.008,-0.036,102.0,106.0,101.0,13.3,1505.2,337.6,-0.8,1.8,2471.301,13.29,0.033,283.6
2023-05-30T09:28:03,42.805,6.029,-0.008,0.016,-0.051,102.0,103.0,101.0,13.4,1505.2,343.3,-0.8,1.8,2471.295,13.29,0.017,333.4
2023-05-30T09:31:03,42.805,6.029,-0.022,0.0,-0.071,101.0,103.0,102.0,13.3,1505.2,320.0,-0.8,1.8,2471.342,13.29,0.022,270.0
2023-05-30T09:34:03,42.805,6.029,-0.049,0.011,-0.042,101.0,103.0,101.0,13.4,1505.2,337.9,-0.8,1.8,2471.312,13.29,0.05,282.7
2023-05-30T09:37:03,42.805,6.029,-0.014,0.002,-0.04,102.0,102.0,101.0,13.3,1505.2,342.8,-0.8,1.8,2471.322,13.29,0.014,278.1
2023-05-30T09:40:03,42.805,6.029,-0.016,0.009,-0.044,103.0,102.0,101.0,13.4,1505.2,340.1,-0.8,1.8,2471.317,13.29,0.018,299.4
2023-05-30T09:43:03,42.805,6.029,-0.03,0.015,-0.046,103.0,102.0,101.0,13.4,1505.2,337.3,-0.7,1.8,2471.294,13.29,0.033,296.6
2023-05-30T09:46:03,42.805,6.029,-0.013,0.019,-0.023,103.0,102.0,102.0,13.4,1505.2,341.9,-0.8,1.8,2471.295,13.29,0.023,325.6
2023-05-30T09:49:03,42.805,6.029,-0.027,0.005,-0.017,102.0,102.0,102.0,13.4,1505.2,321.0,-0.8,1.8,2471.284,13.29,0.027,280.5
2023-05-30T09:52:03,42.805,6.029,-0.03,0.022,-0.006,103.0,102.0,102.0,13.4,1505.2,328.7,-0.8,1.8,2471.29,13.29,0.037,306.3